Location: ????????
(55.0559°N, 39.1270°E)
Time: 18:32:20
(UTC+00:00)

Cosmos 1190 Rocket - Pass Details

Date: 15 November 2025
Orbit: 753 x 775 km, 74.1° (Epoch: 14 December)

Event Time Altitude Azimuth Distance (km) Brightness Sun altitude
Exits shadow 01:54:18 54° 192° (SSW) 932 4.2 -25.6°
Drops below altitude 10° 01:58:26 10° 166° (SSE) 2,298 6.6 -25.0°
Sets 02:00:48 0° 164° (SSE) 3,217 7.4 -24.7°
